Theta_e
320 322 322 321 319 321 321 322 323 324 323 322 321 321 319 320 322 322 321 322 321 322 323 321 321 322 317 317 319 320 320 320 314 315 319 324 326 328 328 326 328 329 325
318 318 321 321 319 319 322 321 321 321 322 322 321 320 319 317 321 318 320 321 320 319 320 321 321 323 319 318 318 318 319 321 317 313 318 319 318 325 322 325 326 328 324
316 317 319 322 321 320 318 321 319 322 321 322 319 320 319 317 317 319 320 319 320 320 320 320 320 322 321 318 319 318 318 317 319 319 314 316 317 322 318 321 322 325 321
315 317 317 320 320 318 316 318 321 321 320 319 320 320 319 317 316 316 316 318 320 319 322 320 319 319 321 321 321 321 319 317 317 316 314 316 316 319 319 319 319 319 315
314 316 316 317 320 318 316 317 319 322 320 318 318 319 319 318 315 318 319 318 319 317 319 319 318 318 315 316 324 322 321 314 315 312 312 316 316 316 316 319 317 319 320
313 314 316 315 317 317 315 318 320 320 321 319 321 319 319 316 306 310 310 317 318 319 318 321 319 318 315 313 314 313 317 320 317 320 315 321 322 323 321 318 317 318 317
313 314 316 316 315 314 315 317 319 318 321 318 320 321 320 320 307 309 308 318 317 321 318 319 316 315 320 318 314 313 313 313 317 325 324 322 323 324 326 324 324 319 317
313 313 314 316 315 315 316 317 320 323 322 321 321 320 320 318 305 305 306 315 317 318 319 319 319 320 316 317 320 321 321 323 324 325 326 327 327 328 327 327 325 324 322
311 311 312 315 315 315 313 315 320 322 322 323 321 321 320 320 304 303 307 317 318 318 317 320 318 320 307 307 317 318 321 318 311 311 308 308 307 308 311 318 314 313 311
311 312 312 315 316 313 314 315 317 321 320 322 321 322 316 320 304 303 307 314 317 316 321 320 310 315 304 305 318 314 313 317 317 318 319 312 312 314 309 321 319 311 314
310 310 313 315 316 316 318 318 317 316 319 321 319 316 321 321 316 302 302 317 315 315 315 315 317 304 302 301 301 320 313 314 311 314 316 318 320 320 317 319 325 319 315
309 310 310 314 314 314 317 318 316 316 316 317 320 321 319 323 311 303 301 301 310 318 316 316 314 300 300 300 303 302 303 303 313 313 313 313 315 316 319 321 327 323 323
308 309 309 310 313 314 315 317 317 313 311 314 319 318 317 316 318 305 301 300 301 313 316 308 301 298 299 299 299 300 297 314 314 312 312 313 315 320 327 324 325 325 325
306 307 308 309 308 311 313 316 314 312 311 311 313 315 314 321 314 315 318 314 303 309 307 313 310 308 307 306 309 304 311 314 314 314 313 315 316 316 315 315 315 317 316
307 308 307 305 307 308 312 313 315 315 307 308 309 313 316 315 310 302 305 310 315 313 315 317 315 314 313 312 311 313 314 314 312 313 315 315 314 315 314 316 314 314 312
305 305 304 303 304 306 307 310 302 297 299 298 296 301 312 303 299 298 297 298 301 299 314 314 315 314 313 313 313 313 314 312 312 313 314 314 314 314 314 316 316 315 313
304 303 304 302 304 305 306 306 307 309 300 298 297 295 296 293 294 296 297 297 296 298 312 314 313 314 314 314 314 314 313 313 315 312 312 313 314 314 313 313 314 315 313
305 299 302 302 303 306 306 308 308 309 307 309 299 298 296 296 295 296 295 294 312 306 314 313 313 315 316 315 315 313 313 313 312 311 311 312 312 312 313 313 314 313 312
304 303 302 303 303 302 306 305 306 305 307 307 311 304 300 296 297 294 293 313 314 312 312 313 314 315 313 315 316 316 316 313 312 312 312 312 312 311 312 314 314 300 302
303 298 299 301 302 300 301 301 302 303 304 305 305 306 307 301 303 313 315 316 316 313 316 314 312 316 313 316 314 317 314 313 312 312 312 313 313 314 313 314 313 310 309
301 302 296 301 300 300 299 299 299 301 302 304 305 303 291 303 302 310 311 317 318 316 317 315 318 317 315 317 316 315 314 313 313 313 313 313 314 313 314 313 311 310 309
302 300 301 301 301 299 300 300 299 299 300 300 302 304 290 305 305 307 311 313 315 319 319 320 316 316 317 315 316 315 314 313 314 314 313 313 313 313 312 311 310 310 310
302 302 302 300 300 297 299 300 300 301 300 300 301 302 303 304 305 307 307 310 311 315 318 318 321 318 317 318 316 318 316 315 315 315 314 313 313 313 313 311 310 309 309
302 301 301 301 301 299 299 300 300 295 298 300 301 302 302 303 303 303 305 307 308 310 313 316 318 316 318 321 319 319 316 315 318 317 317 315 314 312 313 311 311 310 310
302 302 301 301 300 302 301 299 301 304 300 298 296 299 301 301 301 302 303 305 307 307 311 313 316 319 319 320 320 314 295 290 303 294 318 318 316 316 314 312 312 312 311
305 305 303 302 303 302 302 303 301 301 303 305 301 297 297 297 300 301 302 304 306 308 309 309 312 314 315 314 307 290 287 288 298 290 308 316 315 314 313 313 313 311 311
Wind_Speed
9 8 8 7 10 5 2 12 7 5 9 9 9 6 8 5 6 6 9 10 3 5 6 2 3 2 4 4 2 3 2 3 2 1 2 4 6 10 9 13 14 12 12
6 2 11 9 10 10 7 11 11 8 9 10 8 9 8 1 7 4 6 6 5 5 4 8 6 3 2 4 3 3 3 3 4 4 2 3 4 10 11 12 10 10 12
11 10 9 10 11 9 6 6 8 12 8 11 4 10 9 4 3 5 5 4 3 5 3 7 8 6 3 2 3 5 5 5 5 3 5 3 4 8 7 6 5 7 10
10 13 13 13 11 8 4 8 13 13 11 10 6 8 3 5 3 3 7 3 6 7 2 7 9 8 4 2 2 4 4 8 7 6 4 4 8 7 7 9 7 9 11
17 9 12 13 12 9 6 11 13 13 7 13 3 10 5 6 5 4 4 5 4 2 8 4 8 6 6 7 2 3 2 10 6 2 2 5 9 11 10 6 6 9 9
13 16 8 8 12 8 7 14 11 12 5 5 6 6 6 6 9 9 1 4 4 3 2 5 3 9 6 7 7 11 5 3 4 3 4 2 8 4 4 5 4 6 7
8 13 11 11 9 6 12 13 10 11 7 6 7 7 8 2 9 9 3 4 5 3 2 4 6 3 6 5 4 4 10 8 2 6 5 6 6 4 7 4 5 6 3
11 7 14 12 8 8 7 9 9 9 7 7 7 8 6 7 9 9 6 5 8 3 6 3 4 3 6 7 3 4 4 8 9 7 7 7 5 2 4 5 1 3 3
13 12 12 10 10 6 7 7 9 9 7 7 6 8 7 8 12 9 7 8 7 7 5 4 1 3 5 8 7 4 3 5 7 9 8 7 6 7 6 3 6 6 6
15 14 11 15 9 4 6 10 10 9 8 10 7 8 7 7 14 12 10 9 5 6 5 8 6 5 7 3 6 2 2 4 1 7 5 3 2 2 3 3 4 4 2
15 14 15 12 14 6 6 7 8 11 8 9 8 1 7 5 10 15 14 10 4 7 7 8 8 10 9 2 3 6 5 5 2 4 3 5 6 6 5 4 4 6 4
14 15 12 15 12 12 8 8 4 5 7 8 9 7 7 6 8 12 13 14 8 5 5 4 8 10 9 5 4 5 2 5 7 6 6 6 7 7 8 8 5 4 6
18 17 12 12 13 13 11 7 4 3 3 6 8 6 8 10 2 10 15 12 8 7 4 7 14 9 8 5 6 4 4 6 6 4 4 4 4 5 7 4 4 4 5
13 12 16 11 8 11 10 7 6 5 2 4 5 6 2 6 6 2 9 9 7 7 7 7 7 4 7 3 6 7 7 8 6 5 5 5 4 5 4 5 6 8 7
13 13 10 7 11 8 9 5 6 3 4 4 6 7 5 7 5 5 6 3 4 10 10 8 8 7 8 9 8 9 9 9 8 7 7 6 6 7 7 7 7 6 7
12 10 8 9 8 12 5 6 2 5 5 3 4 7 7 3 7 10 3 6 5 8 8 6 6 9 9 9 9 9 9 7 6 7 8 8 8 8 7 7 8 7 7
9 10 10 8 10 7 10 6 7 1 3 2 5 8 9 5 5 1 3 4 5 2 7 7 6 7 7 7 7 6 5 5 5 7 8 8 8 8 6 7 8 4 7
12 6 10 8 10 9 9 8 6 6 4 3 5 6 7 9 7 6 0 2 5 4 9 9 8 6 6 6 7 5 5 5 6 7 7 8 8 9 9 7 8 8 8
7 8 9 9 7 8 7 5 7 6 4 2 3 4 7 10 7 4 4 7 10 9 6 9 7 7 1 10 6 6 2 6 5 6 7 8 8 8 10 8 7 5 1
10 1 8 7 7 7 8 8 7 8 8 7 6 6 4 6 6 3 5 8 10 6 4 4 5 11 2 8 7 10 5 6 6 7 8 8 8 9 9 8 9 6 6
6 4 8 5 5 6 6 6 6 7 8 8 7 5 2 3 5 5 3 4 6 5 5 8 15 6 7 9 6 8 7 6 8 9 9 10 9 9 9 7 8 6 7
6 5 7 5 5 6 6 5 5 5 6 6 6 7 6 7 4 7 2 3 5 7 6 10 8 6 10 6 7 5 8 8 8 8 8 9 8 9 8 8 9 8 8
7 5 4 6 6 4 5 4 5 5 5 5 6 5 6 6 7 9 8 2 5 6 6 6 9 6 8 5 6 8 8 5 8 7 9 8 7 7 9 8 9 9 9
7 8 9 6 2 4 5 4 3 4 5 6 6 5 5 6 6 6 6 8 8 9 6 7 7 7 4 13 2 7 6 10 5 10 8 9 9 10 10 9 10 11 10
6 5 7 7 5 4 2 6 7 3 3 3 4 5 5 5 6 6 6 6 7 7 8 8 8 11 14 14 12 9 10 11 10 9 7 10 9 11 9 7 10 9 10
4 5 4 7 8 4 7 3 4 6 4 3 3 4 5 5 5 5 5 6 6 6 6 6 8 12 8 7 10 6 8 10 11 10 7 8 11 10 9 12 14 11 12
Wind_Direction
226 254 246 270 259 288 328 281 282 245 260 264 283 277 291 236 253 279 290 291 337 270 274 349 278 318 359 23 164 189 214 283 108 120 282 304 204 142 134 122 140 137 134
354 45 288 264 259 265 251 260 269 258 261 250 249 273 278 258 264 298 298 310 307 22 3 22 24 67 71 49 74 46 30 55 118 88 359 79 357 114 122 126 132 136 141
355 329 296 271 262 266 274 280 277 284 266 271 288 259 264 223 255 261 343 349 331 301 19 47 54 50 91 132 62 93 118 99 94 95 41 114 96 90 77 86 112 148 136
336 337 321 298 272 255 268 295 275 269 259 272 249 264 274 249 208 193 259 50 339 335 21 74 43 43 62 120 155 136 119 112 100 93 105 102 137 139 164 173 186 153 134
327 339 336 311 277 260 265 275 264 250 257 254 205 275 228 246 215 170 336 320 225 49 328 57 80 68 62 50 100 141 70 113 129 123 203 187 146 168 160 152 152 123 155
321 326 344 319 296 264 249 268 252 256 259 312 245 211 192 266 117 101 348 299 338 306 350 351 66 155 93 60 55 75 89 71 141 229 113 200 87 98 102 142 124 158 170
330 325 331 338 300 259 251 258 264 262 238 225 244 231 190 170 148 137 178 276 299 312 308 72 13 9 137 121 94 111 114 143 146 71 49 40 96 26 105 75 130 163 153
317 337 337 349 320 285 283 277 287 273 259 236 259 277 207 178 157 162 182 234 254 259 261 128 150 55 33 359 218 165 114 61 31 51 70 61 87 88 102 134 145 66 130
323 345 335 344 329 311 307 303 306 289 272 244 210 244 239 163 159 175 192 227 235 244 235 154 176 159 102 1 318 163 127 118 94 78 78 71 54 31 23 238 175 195 200
333 338 336 327 328 298 266 285 289 304 294 255 227 224 193 222 170 183 200 249 183 227 256 155 178 104 123 32 324 147 226 112 177 140 148 150 205 164 327 295 301 244 237
334 333 333 328 326 316 313 263 269 270 282 290 279 326 244 240 176 180 195 246 247 233 197 234 159 150 146 173 335 13 38 337 152 273 222 203 180 179 205 213 315 318 332
325 318 333 332 326 322 343 326 276 277 276 295 272 264 230 228 189 190 192 218 285 301 231 157 135 155 150 172 261 105 65 307 246 212 207 192 197 201 190 168 180 267 332
333 332 323 327 331 320 330 343 338 211 293 300 274 242 244 222 62 183 188 210 234 251 47 105 131 150 142 182 215 208 228 251 268 236 228 221 200 73 94 114 145 213 250
327 317 333 330 321 324 326 331 334 52 357 309 326 324 304 296 115 308 230 196 213 217 160 168 152 157 197 228 195 200 237 255 268 258 241 243 202 169 204 228 214 190 219
334 326 330 327 315 314 320 353 344 22 18 359 1 327 307 298 132 120 358 47 219 195 189 221 190 205 217 203 219 218 214 210 220 238 270 248 223 204 208 204 216 236 257
331 337 350 324 336 319 328 325 13 85 160 155 1 35 336 76 29 36 340 48 36 35 207 215 225 213 213 216 207 207 206 209 250 234 223 238 244 243 236 224 221 227 249
345 337 338 342 331 330 316 330 338 326 222 132 57 45 40 313 324 247 317 358 24 13 246 249 245 266 250 232 234 234 239 232 222 225 246 239 251 254 236 255 267 215 230
337 348 344 351 343 332 344 354 346 344 345 194 103 60 20 354 342 347 310 198 216 201 259 250 254 238 264 264 264 234 237 242 226 247 251 246 250 250 251 239 247 259 263
340 336 345 341 358 336 348 339 336 335 331 286 99 116 15 344 1 317 215 250 232 227 228 245 273 225 311 287 299 271 268 290 291 260 233 244 245 247 249 260 245 224 105
335 52 316 338 341 348 352 356 347 327 328 342 346 12 41 1 334 249 235 238 246 259 211 356 321 279 208 275 198 255 214 238 240 240 252 261 234 240 254 252 247 251 217
327 339 299 305 348 6 346 351 342 342 334 334 331 359 295 300 291 302 295 271 270 298 261 181 227 273 241 227 279 261 246 219 220 221 223 219 230 247 248 258 272 254 238
311 333 328 344 7 347 343 340 326 327 326 326 325 319 247 273 214 250 254 304 292 300 302 307 260 297 292 287 270 302 256 259 246 241 236 241 243 231 232 248 246 246 247
299 327 8 339 1 326 298 342 337 341 333 326 321 321 328 337 327 327 336 341 303 285 303 295 293 291 301 293 321 281 273 237 303 277 265 243 255 269 259 235 240 250 244
306 345 334 319 339 318 322 319 343 333 342 329 332 330 324 317 318 318 312 313 329 335 295 267 273 275 282 287 272 288 343 342 250 244 295 249 250 216 263 260 238 238 257
299 306 291 302 314 309 261 290 309 232 230 294 321 314 317 321 313 312 311 299 293 301 303 324 324 334 330 319 332 37 10 360 3 331 307 289 267 268 248 250 276 269 250
315 298 303 304 289 253 272 260 252 284 296 227 221 255 284 282 275 288 288 287 290 291 302 305 307 314 345 25 32 43 24 10 2 339 327 290 285 276 269 260 248 250 244